Time,TemperatureF,DewpointF,PressureIn,WindDirection,WindDirectionDegrees,WindSpeedMPH,WindSpeedGustMPH,Humidity,HourlyPrecipIn,Conditions,Clouds,dailyrainin,SoftwareType,DateUTC
2013-03-30 00:01:00,34.0,24.0,-100.00,SW,226,1.0,2.0,66,0.00,,,-99.99,,2013-03-30 06:01:00,
2013-03-30 00:11:00,33.0,23.0,-100.00,SSW,209,3.0,4.0,67,0.00,,,-99.99,,2013-03-30 06:11:00,
2013-03-30 00:21:00,34.0,24.0,-100.00,SW,220,2.0,4.0,67,0.00,,,-99.99,,2013-03-30 06:21:00,
2013-03-30 00:32:00,32.0,24.0,-100.00,SW,236,4.0,5.0,72,0.00,,,-99.99,,2013-03-30 06:32:00,
2013-03-30 00:41:00,32.0,24.0,-100.00,SW,233,4.0,4.0,73,0.00,,,-99.99,,2013-03-30 06:41:00,
2013-03-30 00:52:00,33.0,24.0,-100.00,WSW,250,4.0,7.0,72,0.00,,,-99.99,,2013-03-30 06:52:00,
2013-03-30 01:02:00,34.0,25.0,-100.00,WSW,254,6.0,7.0,70,0.00,,,-99.99,,2013-03-30 07:02:00,
2013-03-30 01:11:00,33.0,25.0,-100.00,WSW,251,4.0,6.0,70,0.00,,,-99.99,,2013-03-30 07:11:00,
2013-03-30 01:21:00,34.0,25.0,-100.00,WSW,241,6.0,9.0,68,0.00,,,-99.99,,2013-03-30 07:21:00,
2013-03-30 01:32:00,34.0,25.0,-100.00,SSW,206,4.0,6.0,69,0.00,,,-99.99,,2013-03-30 07:32:00,
2013-03-30 01:41:00,33.0,25.0,-100.00,SW,236,6.0,7.0,70,0.00,,,-99.99,,2013-03-30 07:41:00,
2013-03-30 01:52:00,34.0,25.0,-100.00,WSW,241,6.0,7.0,70,0.00,,,-99.99,,2013-03-30 07:52:00,
2013-03-30 02:01:00,34.0,25.0,-100.00,West,260,7.0,9.0,68,0.00,,,-99.99,,2013-03-30 08:01:00,
2013-03-30 02:11:00,34.0,25.0,-100.00,WSW,257,6.0,7.0,68,0.00,,,-99.99,,2013-03-30 08:11:00,
2013-03-30 02:21:00,33.0,24.0,-100.00,West,264,1.0,2.0,70,0.00,,,-99.99,,2013-03-30 08:21:00,
2013-03-30 02:31:00,31.0,24.0,-100.00,South,179,1.0,2.0,76,0.00,,,-99.99,,2013-03-30 08:31:00,
2013-03-30 02:42:00,31.0,24.0,-100.00,South,178,0.0,2.0,75,0.00,,,-99.99,,2013-03-30 08:42:00,
2013-03-30 02:52:00,30.0,24.0,-100.00,SSE,158,2.0,3.0,78,0.00,,,-99.99,,2013-03-30 08:52:00,
2013-03-30 03:01:00,29.0,24.0,-100.00,South,179,3.0,4.0,83,0.00,,,-99.99,,2013-03-30 09:01:00,
2013-03-30 03:11:00,29.0,24.0,-100.00,SW,219,2.0,3.0,82,0.00,,,-99.99,,2013-03-30 09:11:00,
2013-03-30 03:22:00,29.0,24.0,-100.00,West,263,3.0,4.0,83,0.00,,,-99.99,,2013-03-30 09:22:00,
2013-03-30 03:33:00,31.0,24.0,-100.00,West,275,6.0,9.0,77,0.00,,,-99.99,,2013-03-30 09:33:00,
2013-03-30 03:42:00,31.0,24.0,-100.00,West,267,9.0,11.0,75,0.00,,,-99.99,,2013-03-30 09:42:00,
2013-03-30 03:52:00,32.0,24.0,-100.00,West,267,9.0,12.0,73,0.00,,,-99.99,,2013-03-30 09:52:00,
2013-03-30 04:02:00,32.0,24.0,-100.00,West,265,10.0,12.0,73,0.00,,,-99.99,,2013-03-30 10:02:00,
2013-03-30 04:12:00,32.0,24.0,-100.00,West,264,9.0,11.0,73,0.00,,,-99.99,,2013-03-30 10:12:00,
2013-03-30 04:22:00,32.0,24.0,-100.00,West,267,11.0,12.0,74,0.00,,,-99.99,,2013-03-30 10:22:00,
2013-03-30 04:32:00,32.0,24.0,-100.00,West,265,11.0,13.0,74,0.00,,,-99.99,,2013-03-30 10:32:00,
2013-03-30 04:42:00,32.0,24.0,-100.00,West,264,12.0,13.0,74,0.00,,,-99.99,,2013-03-30 10:42:00,
2013-03-30 04:52:00,31.0,24.0,-100.00,WSW,253,9.0,10.0,75,0.00,,,-99.99,,2013-03-30 10:52:00,
2013-03-30 05:02:00,30.0,24.0,-100.00,SW,233,9.0,10.0,79,0.00,,,-99.99,,2013-03-30 11:02:00,
2013-03-30 05:11:00,30.0,24.0,-100.00,WSW,244,9.0,11.0,78,0.00,,,-99.99,,2013-03-30 11:11:00,
2013-03-30 05:22:00,31.0,25.0,-100.00,WSW,253,12.0,14.0,76,0.00,,,-99.99,,2013-03-30 11:22:00,
2013-03-30 05:32:00,31.0,24.0,-100.00,West,260,12.0,14.0,76,0.00,,,-99.99,,2013-03-30 11:32:00,
2013-03-30 05:42:00,31.0,24.0,-100.00,West,260,11.0,12.0,76,0.00,,,-99.99,,2013-03-30 11:42:00,
2013-03-30 05:52:00,31.0,24.0,-100.00,WSW,258,9.0,9.0,77,0.00,,,-99.99,,2013-03-30 11:52:00,
2013-03-30 06:02:00,30.0,24.0,-100.00,West,260,7.0,9.0,78,0.00,,,-99.99,,2013-03-30 12:02:00,
2013-03-30 06:11:00,30.0,24.0,-100.00,West,268,7.0,10.0,78,0.00,,,-99.99,,2013-03-30 12:11:00,
2013-03-30 06:22:00,30.0,25.0,-100.00,WSW,257,6.0,9.0,79,0.00,,,-99.99,,2013-03-30 12:22:00,
2013-03-30 06:32:00,30.0,25.0,-100.00,WSW,257,9.0,11.0,78,0.00,,,-99.99,,2013-03-30 12:32:00,
2013-03-30 06:41:00,31.0,25.0,-100.00,West,265,9.0,12.0,78,0.00,,,-99.99,,2013-03-30 12:41:00,
2013-03-30 06:52:00,31.0,25.0,-100.00,West,263,10.0,13.0,77,0.00,,,-99.99,,2013-03-30 12:52:00,
2013-03-30 07:02:00,31.0,25.0,-100.00,WSW,250,9.0,11.0,77,0.00,,,-99.99,,2013-03-30 13:02:00,
2013-03-30 07:11:00,31.0,25.0,-100.00,WSW,250,7.0,10.0,78,0.00,,,-99.99,,2013-03-30 13:11:00,
2013-03-30 07:21:00,30.0,25.0,-100.00,WSW,239,4.0,7.0,80,0.00,,,-99.99,,2013-03-30 13:21:00,
2013-03-30 07:32:00,30.0,25.0,-100.00,SW,232,2.0,3.0,81,0.00,,,-99.99,,2013-03-30 13:32:00,
2013-03-30 07:42:00,30.0,25.0,-100.00,SSW,206,4.0,4.0,81,0.00,,,-99.99,,2013-03-30 13:42:00,
2013-03-30 07:52:00,30.0,25.0,-100.00,SW,224,6.0,6.0,81,0.00,,,-99.99,,2013-03-30 13:52:00,
2013-03-30 08:02:00,30.0,25.0,-100.00,WSW,243,6.0,7.0,81,0.00,,,-99.99,,2013-03-30 14:02:00,
2013-03-30 08:11:00,30.0,25.0,-100.00,WSW,237,7.0,9.0,80,0.00,,,-99.99,,2013-03-30 14:11:00,
2013-03-30 08:21:00,32.0,26.0,-100.00,WSW,247,9.0,11.0,78,0.00,,,-99.99,,2013-03-30 14:21:00,
2013-03-30 08:32:00,33.0,26.0,-100.00,WSW,251,9.0,11.0,76,0.00,,,-99.99,,2013-03-30 14:32:00,
2013-03-30 08:41:00,33.0,26.0,-100.00,WSW,250,10.0,16.0,74,0.00,,,-99.99,,2013-03-30 14:41:00,
2013-03-30 08:52:00,35.0,26.0,-100.00,West,260,14.0,17.0,69,0.00,,,-99.99,,2013-03-30 14:52:00,
2013-03-30 09:02:00,35.0,26.0,-100.00,WSW,258,17.0,19.0,67,0.00,,,-99.99,,2013-03-30 15:02:00,
2013-03-30 09:11:00,36.0,26.0,-100.00,WSW,250,14.0,17.0,69,0.00,,,-99.99,,2013-03-30 15:11:00,
2013-03-30 09:21:00,36.0,26.0,-100.00,WSW,254,18.0,21.0,67,0.00,,,-99.99,,2013-03-30 15:21:00,
2013-03-30 09:33:00,36.0,26.0,-100.00,WSW,254,17.0,23.0,68,0.00,,,-99.99,,2013-03-30 15:33:00,
2013-03-30 09:42:00,36.0,27.0,-100.00,WSW,256,17.0,21.0,69,0.00,,,-99.99,,2013-03-30 15:42:00,
2013-03-30 09:52:00,36.0,26.0,-100.00,WSW,246,18.0,21.0,67,0.00,,,-99.99,,2013-03-30 15:52:00,
2013-03-30 10:02:00,36.0,26.0,-100.00,WSW,248,19.0,24.0,65,0.00,,,-99.99,,2013-03-30 16:02:00,
2013-03-30 10:12:00,36.0,26.0,-100.00,WSW,243,18.0,24.0,65,0.00,,,-99.99,,2013-03-30 16:12:00,
2013-03-30 10:22:00,37.0,25.0,-100.00,WSW,248,20.0,28.0,63,0.00,,,-99.99,,2013-03-30 16:22:00,
2013-03-30 10:32:00,37.0,26.0,-100.00,WSW,240,19.0,24.0,62,0.00,,,-99.99,,2013-03-30 16:32:00,
2013-03-30 10:42:00,37.0,26.0,-100.00,WSW,240,22.0,26.0,63,0.00,,,-99.99,,2013-03-30 16:42:00,
2013-03-30 10:52:00,37.0,26.0,-100.00,WSW,243,21.0,26.0,62,0.00,,,-99.99,,2013-03-30 16:52:00,
2013-03-30 11:02:00,38.0,26.0,-100.00,WSW,246,21.0,24.0,61,0.00,,,-99.99,,2013-03-30 17:02:00,
2013-03-30 11:12:00,38.0,26.0,-100.00,WSW,246,21.0,26.0,61,0.00,,,-99.99,,2013-03-30 17:12:00,
2013-03-30 11:22:00,38.0,26.0,-100.00,SW,234,19.0,23.0,62,0.00,,,-99.99,,2013-03-30 17:22:00,
2013-03-30 11:32:00,38.0,26.0,-100.00,WSW,248,21.0,24.0,62,0.00,,,-99.99,,2013-03-30 17:32:00,
2013-03-30 11:42:00,38.0,27.0,-100.00,WSW,250,20.0,24.0,62,0.00,,,-99.99,,2013-03-30 17:42:00,
2013-03-30 11:52:00,36.0,29.0,-100.00,North,3,7.0,10.0,76,0.00,,,-99.99,,2013-03-30 17:52:00,
2013-03-30 12:02:00,35.0,29.0,-100.00,North,6,6.0,9.0,79,0.00,,,-99.99,,2013-03-30 18:02:00,
2013-03-30 12:11:00,40.0,25.0,-100.00,SW,217,11.0,17.0,55,0.00,,,-99.99,,2013-03-30 18:11:00,
2013-03-30 12:21:00,40.0,25.0,-100.00,SW,230,16.0,21.0,54,0.00,,,-99.99,,2013-03-30 18:21:00,
2013-03-30 12:32:00,40.0,26.0,-100.00,WSW,246,19.0,24.0,56,0.00,,,-99.99,,2013-03-30 18:32:00,
2013-03-30 12:42:00,40.0,26.0,-100.00,WSW,241,20.0,26.0,56,0.00,,,-99.99,,2013-03-30 18:42:00,
2013-03-30 12:52:00,40.0,24.0,-100.00,WSW,246,21.0,26.0,53,0.00,,,-99.99,,2013-03-30 18:52:00,
2013-03-30 13:02:00,40.0,24.0,-100.00,WSW,253,19.0,22.0,52,0.00,,,-99.99,,2013-03-30 19:02:00,
2013-03-30 13:11:00,40.0,24.0,-100.00,WSW,251,17.0,21.0,52,0.00,,,-99.99,,2013-03-30 19:11:00,
2013-03-30 13:21:00,40.0,23.0,-100.00,WSW,237,22.0,26.0,50,0.00,,,-99.99,,2013-03-30 19:21:00,
2013-03-30 13:32:00,40.0,23.0,-100.00,WSW,247,21.0,26.0,51,0.00,,,-99.99,,2013-03-30 19:32:00,
2013-03-30 13:41:00,40.0,22.0,-100.00,WSW,241,21.0,24.0,48,0.00,,,-99.99,,2013-03-30 19:41:00,
2013-03-30 13:52:00,41.0,20.0,-100.00,WSW,250,23.0,27.0,42,0.00,,,-99.99,,2013-03-30 19:52:00,
2013-03-30 14:02:00,41.0,22.0,-100.00,WSW,254,22.0,27.0,47,0.00,,,-99.99,,2013-03-30 20:02:00,
2013-03-30 14:11:00,41.0,24.0,-100.00,West,261,20.0,25.0,50,0.00,,,-99.99,,2013-03-30 20:11:00,
2013-03-30 14:21:00,40.0,28.0,-100.00,North,360,9.0,13.0,63,0.00,,,-99.99,,2013-03-30 20:21:00,
2013-03-30 14:32:00,39.0,29.0,-100.00,NNE,21,9.0,12.0,68,0.00,,,-99.99,,2013-03-30 20:32:00,
2013-03-30 14:42:00,39.0,29.0,-100.00,NE,38,10.0,13.0,66,0.00,,,-99.99,,2013-03-30 20:42:00,
2013-03-30 14:52:00,37.0,29.0,-100.00,NNE,17,12.0,16.0,71,0.00,,,-99.99,,2013-03-30 20:52:00,
2013-03-30 15:02:00,37.0,29.0,-100.00,NNE,28,16.0,18.0,74,0.00,,,-99.99,,2013-03-30 21:02:00,
2013-03-30 15:11:00,37.0,29.0,-100.00,NNE,23,16.0,19.0,74,0.00,,,-99.99,,2013-03-30 21:11:00,
2013-03-30 15:21:00,38.0,29.0,-100.00,NNE,21,14.0,16.0,72,0.00,,,-99.99,,2013-03-30 21:21:00,
2013-03-30 15:32:00,38.0,30.0,-100.00,NNE,16,13.0,17.0,73,0.00,,,-99.99,,2013-03-30 21:32:00,
2013-03-30 15:42:00,39.0,29.0,-100.00,NNE,27,14.0,17.0,69,0.00,,,-99.99,,2013-03-30 21:42:00,
2013-03-30 15:52:00,40.0,29.0,-100.00,North,4,11.0,13.0,66,0.00,,,-99.99,,2013-03-30 21:52:00,
2013-03-30 16:02:00,39.0,30.0,-100.00,NNE,28,12.0,14.0,69,0.00,,,-99.99,,2013-03-30 22:02:00,
2013-03-30 16:12:00,39.0,28.0,-100.00,NNE,14,9.0,11.0,65,0.00,,,-99.99,,2013-03-30 22:12:00,
2013-03-30 16:23:00,40.0,29.0,-100.00,NNW,328,4.0,4.0,65,0.00,,,-99.99,,2013-03-30 22:23:00,
2013-03-30 16:32:00,41.0,28.0,-100.00,North,350,6.0,7.0,59,0.00,,,-99.99,,2013-03-30 22:32:00,
2013-03-30 16:42:00,42.0,28.0,-100.00,North,6,3.0,4.0,58,0.00,,,-99.99,,2013-03-30 22:42:00,
2013-03-30 16:52:00,42.0,25.0,-100.00,NE,37,3.0,6.0,51,0.00,,,-99.99,,2013-03-30 22:52:00,
2013-03-30 17:02:00,40.0,28.0,-100.00,NNE,20,16.0,17.0,61,0.00,,,-99.99,,2013-03-30 23:02:00,
2013-03-30 17:12:00,40.0,28.0,-100.00,NNE,17,12.0,14.0,63,0.00,,,-99.99,,2013-03-30 23:12:00,
2013-03-30 17:22:00,40.0,29.0,-100.00,NNE,16,12.0,16.0,63,0.00,,,-99.99,,2013-03-30 23:22:00,
2013-03-30 17:32:00,41.0,29.0,-100.00,NNE,32,11.0,14.0,62,0.00,,,-99.99,,2013-03-30 23:32:00,
2013-03-30 17:41:00,40.0,27.0,-100.00,NNE,28,13.0,17.0,60,0.00,,,-99.99,,2013-03-30 23:41:00,
2013-03-30 17:52:00,40.0,27.0,-100.00,NE,34,11.0,13.0,59,0.00,,,-99.99,,2013-03-30 23:52:00,
2013-03-30 18:02:00,40.0,27.0,-100.00,NNE,21,9.0,11.0,57,0.00,,,-99.99,,2013-03-31 00:02:00,
2013-03-30 18:11:00,40.0,27.0,-100.00,NNE,18,9.0,12.0,59,0.00,,,-99.99,,2013-03-31 00:11:00,
2013-03-30 18:22:00,41.0,26.0,-100.00,NNE,16,9.0,10.0,55,0.00,,,-99.99,,2013-03-31 00:22:00,
2013-03-30 18:32:00,41.0,27.0,-100.00,NNE,31,9.0,11.0,57,0.00,,,-99.99,,2013-03-31 00:32:00,
2013-03-30 18:41:00,40.0,26.0,-100.00,NNE,30,10.0,11.0,57,0.00,,,-99.99,,2013-03-31 00:41:00,
2013-03-30 18:52:00,40.0,27.0,-100.00,NE,56,7.0,9.0,60,0.00,,,-99.99,,2013-03-31 00:52:00,
2013-03-30 19:01:00,40.0,27.0,-100.00,NE,41,6.0,7.0,61,0.00,,,-99.99,,2013-03-31 01:01:00,
2013-03-30 19:11:00,40.0,28.0,-100.00,NE,56,5.0,6.0,62,0.00,,,-99.99,,2013-03-31 01:11:00,
2013-03-30 19:21:00,39.0,27.0,-100.00,ENE,65,6.0,7.0,63,0.00,,,-99.99,,2013-03-31 01:21:00,
2013-03-30 19:32:00,38.0,27.0,-100.00,NE,52,9.0,10.0,65,0.00,,,-99.99,,2013-03-31 01:32:00,
2013-03-30 19:41:00,37.0,27.0,-100.00,NE,47,7.0,9.0,66,0.00,,,-99.99,,2013-03-31 01:41:00,
2013-03-30 19:52:00,36.0,26.0,-100.00,NE,34,9.0,9.0,68,0.00,,,-99.99,,2013-03-31 01:52:00,
2013-03-30 20:02:00,36.0,26.0,-100.00,NE,34,4.0,5.0,67,0.00,,,-99.99,,2013-03-31 02:02:00,
2013-03-30 20:11:00,36.0,26.0,-100.00,NE,52,3.0,4.0,68,0.00,,,-99.99,,2013-03-31 02:11:00,
2013-03-30 20:21:00,36.0,26.0,-100.00,ENE,68,4.0,6.0,66,0.00,,,-99.99,,2013-03-31 02:21:00,
2013-03-30 20:32:00,35.0,25.0,-100.00,NE,51,5.0,7.0,67,0.00,,,-99.99,,2013-03-31 02:32:00,
2013-03-30 20:42:00,35.0,25.0,-100.00,NNE,13,4.0,5.0,68,0.00,,,-99.99,,2013-03-31 02:42:00,
2013-03-30 20:51:00,35.0,25.0,-100.00,NE,38,4.0,5.0,66,0.00,,,-99.99,,2013-03-31 02:51:00,
2013-03-30 21:02:00,35.0,25.0,-100.00,North,10,6.0,7.0,68,0.00,,,-99.99,,2013-03-31 03:02:00,
2013-03-30 21:11:00,33.0,26.0,-100.00,NNE,27,4.0,6.0,74,0.00,,,-99.99,,2013-03-31 03:11:00,
2013-03-30 21:21:00,32.0,25.0,-100.00,NNE,13,2.0,4.0,76,0.00,,,-99.99,,2013-03-31 03:21:00,
2013-03-30 21:32:00,32.0,25.0,-100.00,NNE,31,1.0,1.0,75,0.00,,,-99.99,,2013-03-31 03:32:00,
2013-03-30 21:42:00,32.0,25.0,-100.00,NE,42,3.0,4.0,74,0.00,,,-99.99,,2013-03-31 03:42:00,
2013-03-30 21:53:00,32.0,25.0,-100.00,NNE,30,2.0,3.0,75,0.00,,,-99.99,,2013-03-31 03:53:00,
2013-03-30 22:02:00,32.0,-99.9,-100.00,NE,47,4.0,4.0,75,0.00,,,-99.99,,2013-03-31 04:02:00,
2013-03-30 22:12:00,30.0,25.0,-100.00,NE,45,2.0,4.0,80,0.00,,,-99.99,,2013-03-31 04:12:00,
2013-03-30 22:22:00,29.0,25.0,-100.00,ENE,69,1.0,3.0,85,0.00,,,-99.99,,2013-03-31 04:22:00,
2013-03-30 22:32:00,29.0,25.0,-100.00,NW,313,1.0,1.0,84,0.00,,,-99.99,,2013-03-31 04:32:00,
2013-03-30 22:42:00,29.0,24.0,-100.00,NNW,340,1.0,1.0,83,0.00,,,-99.99,,2013-03-31 04:42:00,
2013-03-30 22:52:00,29.0,25.0,-100.00,NW,308,1.0,1.0,82,0.00,,,-99.99,,2013-03-31 04:52:00,
2013-03-30 23:02:00,27.0,24.0,-100.00,WNW,302,1.0,1.0,86,0.00,,,-99.99,,2013-03-31 05:02:00,
2013-03-30 23:12:00,30.0,25.0,-100.00,WNW,284,2.0,2.0,81,0.00,,,-99.99,,2013-03-31 05:12:00,
2013-03-30 23:22:00,28.0,24.0,-100.00,West,272,3.0,4.0,85,0.00,,,-99.99,,2013-03-31 05:22:00,
2013-03-30 23:32:00,30.0,24.0,-100.00,WSW,247,4.0,6.0,78,0.00,,,-99.99,,2013-03-31 05:32:00,
2013-03-30 23:41:00,31.0,24.0,-100.00,WSW,253,6.0,7.0,76,0.00,,,-99.99,,2013-03-31 05:41:00,
2013-03-30 23:52:00,30.0,24.0,-100.00,WSW,251,6.0,7.0,78,0.00,,,-99.99,,2013-03-31 05:52:00,